Terug naar catalogus

KUIPER-00538

ActiefCommunicatieLEO
NORAD 69608·PAYLOAD·🇺🇸 United States

Gelanceerd Jun 17, 2026 vanaf Guiana Space Centre

Loading…

Volgende Passages (komende 24 uur)

TLE

VersSource: CelesTrak SupGP

Epoch: Sep 14, 2026, 23:31 UTC

1 69608C 26140S   26257.98027778  .00023247  00000+0  30433-2 0  2571
2 69608  51.9026 341.0526 0000334  85.3195 198.0750 14.79906331    10

Volg KUIPER-00538 in realtime met AllMySat

Download on the App Store